Regional Weather Roundup
Issued by NWS

Home | Current Version | Previous Version | Text Only | Print | Product List | Glossary On
Versions: 1 2 3 4 5 6 7 8 9 10 11 12 13 14 15 16 17 18 19 20 21 22 23 24 25 26 27 28 29 30 31 32 33 34 35 36 37 38 39 40 41 42 43 44 45 46 47 48 49 50
000
ASUS43 KLSX 040159
RWRMO

WEATHER SUMMARY FOR MISSOURI
NATIONAL WEATHER SERVICE SPRINGFIELD MO
800 PM CST TUE MAR 03 2015

NOTE: "FAIR" INDICATES FEW OR NO CLOUDS BELOW 12,000 FEET WITH NO
       SIGNIFICANT WEATHER AND/OR OBSTRUCTIONS TO VISIBILITY.
       CURRENT SKY AND/OR WEATHER CONDITIONS ARE NOT AVAILABLE FOR
       CHILLICOTHE AND FARMINGTON.

MOZ001>031-035>038-043-044-053-054-040300-
...NORTHERN AND WESTERN MISSOURI...

CITY           SKY/WX    TMP DP  RH WIND       PRES   REMARKS
KANSAS CTY INT CLOUDY    33  26  75 N16       29.97R WCI  23
KANSAS C DTWN  CLOUDY    37  27  67 N10G20    29.97R WCI  30
LEE`S SUMMIT   CLOUDY    36  28  73 N17       29.93S WCI  26
ST JOSEPH      CLOUDY    32  23  69 N15       30.01R WCI  22
CHILLICOTHE      N/A     36  27  69 NW6       29.97R

$$
MOZ066>068-077>081-088>096-101>105-040300-
...SOUTHWEST MISSOURI...

CITY           SKY/WX    TMP DP  RH WIND       PRES   REMARKS
SPRINGFIELD    CLOUDY    43  40  89 NE3       29.86S
JOPLIN         CLOUDY    44  43  96 CALM      29.87F FOG

$$
MOZ032>034-039>042-045>050-055>058-069>072-040300-
...CENTRAL MISSOURI...

CITY           SKY/WX    TMP DP  RH WIND       PRES   REMARKS
COLUMBIA       CLOUDY    37  37 100 N10       29.92R FOG     WCI  30
JEFFERSON CITY CLOUDY    40  35  83 NW12      29.94S
ROLLA          CLOUDY    42  39  89 NW7       29.86R
SEDALIA        CLOUDY    37  32  82 N7        29.93S
OSAGE BEACH    CLOUDY    41  36  81 N9        29.91R

$$
MOZ051-052-059>065-040300-
...EAST CENTRAL MISSOURI...

CITY           SKY/WX    TMP DP  RH WIND       PRES   REMARKS
ST LOUIS INTL  LGT RAIN  42  37  82 NW10      29.89S
SPIRIT OF STL  CLOUDY    42  39  89 NW7       29.87F
ST CHARLES     CLOUDY    40  37  89 NW7       29.89F

$$
MOZ072>076-082>087-097>100-106>115-040300-
...SOUTH CENTRAL AND SOUTHEAST MISSOURI...

CITY           SKY/WX    TMP DP  RH WIND       PRES   REMARKS
CAPE GIRARDEAU RAIN      39  39 100 CALM      29.91R VSB 3/4
FARMINGTON     CLOUDY    45  39  81 N6        29.90F
POPLAR BLUFF   RAIN      42  40  92 N5        29.88R VSB 1/2
WEST PLAINS    LGT RAIN  45  43  93 CALM      29.87R VSB 1/2

$$


USA.gov is the U.S. government's official web portal to all federal, state and local government web resources and services.